N0REH Weather Reports


Display with metric or nautical units.
time (UTC)temp
F
wind
direction
speed
MPH
gust
MPH
rain 1hr
in
rain 24hr
in
rain mn
in
humidity
%
barometer
mb
20260504050001 57 190 0.0 3.0 0.00 0.00 0.00 46 1000.6
20260504044545 57 186 0.0 2.0 0.00 0.00 0.00 47 1000.9
20260504043043 57 166 0.0 3.0 0.00 0.00 0.00 47 1001.1
20260504041540 57 186 0.0 1.0 0.00 0.00 0.00 47 1001.4
20260504040041 57 191 0.0 1.0 0.00 0.00 0.00 47 1001.8
20260504034545 57 193 0.0 1.0 0.00 0.00 0.00 46 1002.0
20260504033033 58 191 0.0 2.0 0.00 0.00 0.00 46 1002.3
20260504031531 58 200 0.0 0.0 0.00 0.00 0.00 45 1002.5
20260504030037 59 201 0.0 1.0 0.00 0.00 0.00 42 1002.6
20260504024513 59 211 0.0 1.0 0.00 0.00 0.00 41 1002.6
20260504023009 61 250 0.0 0.0 0.00 0.00 0.00 38 1002.7
20260504021505 63 250 0.0 1.0 0.00 0.00 0.00 35 1002.7
20260504020001 64 215 0.0 1.0 0.00 0.00 0.00 33 1002.7
20260504014600 65 233 0.0 3.0 0.00 0.00 0.00 32 1002.7
20260504013059 66 260 1.0 3.0 0.00 0.00 0.00 31 1002.9
20260504011555 67 267 0.0 5.0 0.00 0.00 0.00 30 1002.9
20260504010057 68 257 0.0 4.0 0.00 0.00 0.00 29 1002.9
20260504004538 69 276 2.0 7.0 0.00 0.00 0.00 28 1003.0
20260504003043 69 262 4.0 10.0 0.00 0.00 0.00 28 1003.0
20260504001547 70 205 1.0 7.0 0.00 0.00 0.00 28 1003.1
20260504000035 70 274 3.0 11.0 0.00 0.00 0.00 26 1003.2
20260503234535 70 285 3.0 10.0 0.00 0.00 0.00 25 1003.2
20260503233034 71 260 5.0 11.0 0.00 0.00 0.00 24 1003.3
20260503231544 71 321 2.0 7.0 0.00 0.00 0.00 25 1003.6
20260503230030 71 264 5.0 11.0 0.00 0.00 0.00 25 1003.6
20260503224511 71 302 3.0 12.0 0.00 0.00 0.00 25 1003.7
20260503223020 71 285 4.0 15.0 0.00 0.00 0.00 24 1003.7
20260503221558 71 260 2.0 11.0 0.00 0.00 0.00 25 1003.8
20260503214558 71 278 4.0 12.0 0.00 0.00 0.00 27 1003.8
20260503213123 71 259 6.0 13.0 0.00 0.00 0.00 27 1003.9
20260503211618 71 332 2.0 6.0 0.00 0.00 0.00 28 1004.0
20260503210052 71 295 4.0 17.0 0.00 0.00 0.00 28 1004.1
20260503204602 71 292 5.0 11.0 0.00 0.00 0.00 31 1004.2
20260503203049 70 332 2.0 11.0 0.00 0.00 0.00 29 1004.3
20260503201531 71 13 5.0 13.0 0.00 0.00 0.00 26 1004.6
20260503200030 70 267 2.0 9.0 0.00 0.00 0.00 30 1004.6
20260503194528 70 23 3.0 12.0 0.00 0.00 0.00 26 1004.9
20260503193025 70 281 1.0 13.0 0.00 0.00 0.00 28 1005.0
20260503191523 70 359 4.0 12.0 0.00 0.00 0.00 31 1005.0
20260503190021 70 332 4.0 10.0 0.00 0.00 0.00 33 1005.0
20260503184518 69 262 4.0 11.0 0.00 0.00 0.00 34 1005.1
20260503183016 69 347 3.0 14.0 0.00 0.00 0.00 35 1005.2
20260503181501 69 302 5.0 14.0 0.00 0.00 0.00 37 1005.3
20260503180100 69 284 3.0 11.0 0.00 0.00 0.00 38 1005.3
20260503174613 69 267 5.0 11.0 0.00 0.00 0.00 38 1005.3
20260503173130 69 252 1.0 8.0 0.00 0.00 0.00 39 1005.5
20260503171554 68 255 3.0 15.0 0.00 0.00 0.00 39 1005.5
20260503081518 60 197 2.0 13.0 0.00 0.00 0.00 44 1004.7
20260503071512 61 217 3.0 12.0 0.00 0.00 0.00 47 1005.4
20260503054545 59 196 5.0 11.0 0.00 0.00 0.00 47 1007.0
20260503053030 58 217 2.0 8.0 0.00 0.00 0.00 48 1007.3